{"data":{"norad_id":52858,"epoch":"2026-05-25T00:01:01.173792Z","epoch_age_seconds":85467,"freshness":"FRESH","line1":"1 52858U 22062AE  26145.00070803 -.00003457  00000+0 -19910-3 0  9999","line2":"2 52858  53.2140  41.5740 0001608  89.9831 270.1345 15.08852675217446","mean_motion":15.08852675,"eccentricity":0.0001608,"inclination_deg":53.214,"raan_deg":41.574,"arg_perigee_deg":89.9831,"mean_anomaly_deg":270.1345,"bstar":-0.0001991,"rev_number":21744,"period_min":95.436752961982,"perigee_km":538.59225789422,"apogee_km":540.81703576784,"semimajor_km":6917.841646831,"source":"CELESTRAK","updated_at":"2026-05-25T13:38:17.246755Z"}}